• MPC Preparation (Info)

  • MPEC 2010-V16 : 2010 VE

    The following Minor Planet Electronic Circular may be linked-to from your own Web pages, but must not otherwise be redistributed electronically.

    A form allowing access to any MPEC is at the bottom of this page.


    Read MPEC 2010-V15 Read MPEC 2010-V17


    M.P.E.C. 2010-V16                                Issued 2010 Nov. 2, 17:02 UT
    
         The Minor Planet Electronic Circulars contain information on unusual
             minor planets and routine data on comets.  They are published
       on behalf of Commission 20 of the International Astronomical Union by the
              Minor Planet Center, Smithsonian Astrophysical Observatory,
                              Cambridge, MA 02138, U.S.A.
    
                 Prepared using the Tamkin Foundation Computer Network
    
                                  MPC@CFA.HARVARD.EDU
           URL https://www.minorplanetcenter.org/iau/mpc.html  ISSN 1523-6714
    
                                        2010 VE
    
    Observations:
         K10V00E* C2010 11 01.19226 22 36 29.07 +26 29 29.5          19.1 V EV016703
         K10V00E  C2010 11 01.19909 22 36 30.88 +26 29 20.4          19.5 V EV016703
         K10V00E  C2010 11 01.20609 22 36 32.73 +26 29 13.6          19.4 V EV016703
         K10V00E  C2010 11 01.21288 22 36 34.44 +26 29 04.9          19.5 V EV016703
         K10V00E  C2010 11 01.22485 22 36 37.54 +26 28 51.3          18.9 V EV016703
         K10V00E  C2010 11 01.23322 22 36 39.60 +26 28 43.8          19.6 V EV016703
         K10V00E  C2010 11 01.24162 22 36 41.72 +26 28 33.8          19.6 V EV016703
         K10V00E  C2010 11 01.25005 22 36 43.92 +26 28 23.9          19.7 V EV016703
         K10V00E  C2010 11 01.43422 22 37 33.50 +26 25 03.8          20.3 R EV016300
         K10V00E  C2010 11 01.43599 22 37 33.96 +26 25 01.2          20.0 R EV016300
         K10V00E  C2010 11 01.43775 22 37 34.34 +26 25 00.1          19.9 R EV016300
         K10V00E  C2010 11 01.44127 22 37 35.13 +26 24 56.5          20.1 R EV016300
         K10V00E KC2010 11 01.72370 22 38 49.15 +26 19 42.5          19.0 R EV016A17
         K10V00E KC2010 11 01.73535 22 38 52.10 +26 19 30.2          19.0 R EV016A17
         K10V00E KC2010 11 01.74701 22 38 55.02 +26 19 18.0          19.0 R EV016A17
         K10V00E  C2010 11 02.02281 22 40 06.18 +26 14 22.7          19.1 R EV016H26
         K10V00E  C2010 11 02.02535 22 40 06.77 +26 14 20.5          18.8 R EV016H26
         K10V00E  C2010 11 02.02791 22 40 07.38 +26 14 17.3          19.5 R EV016H26
         K10V00E  C2010 11 02.03047 22 40 08.01 +26 14 14.2          19.9 R EV016H26
         K10V00E  C2010 11 02.03300 22 40 08.72 +26 14 12.2          19.4 R EV016H26
         K10V00E 4C2010 11 02.14877322 40 38.00 +26 12 10.9          18.9 R EV016673
         K10V00E 4C2010 11 02.14981522 40 38.26 +26 12 10.3          19.4 R EV016673
         K10V00E 4C2010 11 02.15085622 40 38.53 +26 12 09.1          18.9 R EV016673
         K10V00E  C2010 11 02.24692 22 41 02.02 +26 10 25.5          19.5 R EV016854
         K10V00E  C2010 11 02.24932 22 41 02.63 +26 10 21.6          19.5 R EV016854
         K10V00E  C2010 11 02.25269 22 41 03.45 +26 10 18.3          19.5 R EV016854
    
    Observer details:
    300 Bisei Spaceguard Center--BATTeRS.  Observers K. Nishiyama, T. Sakamoto.
        1.0-m f/3.0 reflector + CCD.
    673 Table Mountain Observatory, Wrightwood.  Observer M. Hicks.
    703 Catalina Sky Survey.  Observer A. D. Grauer.  Measurers J. D. Ahern,
        E. C. Beshore, A. Boattini, G. J. Garradd, A. R. Gibbs, A. D. Grauer,
        R. E. Hill, R. A. Kowalski, S. M. Larson, R. H. McNaught.  0.68-m Schmidt
        + CCD.
    854 Sabino Canyon Observatory, Tucson.  Observer J. E. McGaha.  0.36-m f/10.0
        Schmidt-Cassegrain + CCD.
    A17 Guidestar Observatory, Weinheim.  Observers M. Emmerich, S. Melchert.
        0.36-m f/6 Schmidt-Cassegrain + CCD.
    H26 Doc Greiner Research Observatory, Janesvillle.  Observer M. Mills.  0.40-m
        f/8 Schmidt-Cassegrain + CCD.
    
    Orbital elements:
    2010 VE                                                  Earth MOID = 0.1431 AU
    Epoch 2010 July 23.0 TT = JDT 2455400.5                 MPC
    M 348.98240              (2000.0)            P               Q
    n   0.51583065     Peri.    1.14703     +0.38765305     +0.90982946
    a   1.5398011      Node   291.67629     -0.84700389     +0.28816846
    e   0.4760462      Incl.    9.17071     -0.36374377     +0.29861229
    P   1.91           H   19.8           G   0.15           U   9
    Residuals in seconds of arc
    101101 703  1.1-  0.9+    101101 300  0.7+  0.8-    101102 H26  0.4-  0.5-
    101101 703  0.2-  0.6-    101101 300  0.1-  0.0     101102 H26  0.7+  0.2+
    101101 703  0.7+  0.4+    101101 300  1.4-  0.2+    101102 673  0.1-  0.2-
    101101 703  0.4+  0.7-    101101 A17  0.2-  0.3-    101102 673  0.1-  0.3+
    101101 703  1.0+  0.9-    101101 A17  0.1-  0.2-    101102 673  0.1+  0.2+
    101101 703  0.1-  1.0+    101101 A17  0.4-  0.1+    101102 854  0.1-  0.7+
    101101 703  0.5-  0.5+    101102 H26  0.6+  0.1-    101102 854  0.1+  0.5-
    101101 703  0.1+  0.1+    101102 H26  0.1+  0.4+    101102 854  0.1-  0.1-
    101101 300  0.6+  0.1-    101102 H26  0.3-  0.1-
    
    Ephemeris:
    2010 VE                  a,e,i = 1.54, 0.48, 9                   q = 0.8068
    Date    TT    R. A. (2000) Decl.     Delta      r     Elong.  Phase     V
    2010 10 31    22 31.14   +26 51.5    0.357    1.234   125.3    41.0    19.6
    2010 11 10    23 10.31   +24 04.4    0.451    1.308   126.2    37.6    20.2
    2010 11 20    23 40.51   +22 01.0    0.558    1.381   124.2    36.3    20.7
    2010 11 30    00 05.76   +20 37.8    0.677    1.452   120.5    35.8    21.2
    2010 12 10    00 28.25   +19 47.9    0.806    1.520   115.8    35.7    21.7
    
    Timothy B. Spahr             (C) Copyright 2010 MPC           M.P.E.C. 2010-V16
    

    Read MPEC 2010-V15 Read MPEC 2010-V17


    MPEC number:

    Enter an MPEC number in one of the following forms:

    • 1997-B01 (the full form)
    • J97B01 (the packed version of the full form)
    • B01 (the abbreviated form)